Location: Kalberh�ni
(46.4610°N, 7.2453°E)
Time: 01:04:10
(UTC+00:00)

Cosmos 1707 - Pass Details

Date: 20 June 2021
Orbit: 514 x 529 km, 82.5° (Epoch: 25 July)

Event Time Altitude Azimuth Distance (km) Brightness Sun altitude
Rises 20:00:47 0° 193° (SSW) 2,646 6.0 -5.3°
Reaches altitude 10° 20:02:55 10° 196° (SSW) 1,765 5.1 -5.6°
Maximum altitude 20:06:46 70° 280° (W) 567 3.1 -6.0°
Drops below altitude 10° 20:10:42 10° 5° (N) 1,787 6.0 -6.5°
Sets 20:12:52 0° 7° (N) 2,683 6.9 -6.8°
